Regional Weather Roundup
Issued by NWS

Home | Current Version | Previous Version | Text Only | Print | Product List | Glossary Off
Versions: 1 2 3 4 5 6 7 8 9 10 11 12 13 14 15 16 17 18 19 20 21 22 23 24 25 26 27 28 29 30 31 32 33 34 35 36 37 38 39 40 41 42 43 44 45 46 47 48 49 50

000
ASUS43 KFSD 190710
RWRSD

WEATHER ROUNDUP FOR SOUTH DAKOTA
NATIONAL WEATHER SERVICE SIOUX FALLS SD
200 AM CDT THU OCT 19 2017

NOTE: "FAIR" INDICATES FEW OR NO CLOUDS BELOW 12,000 FEET WITH NO
SIGNIFICANT WEATHER AND/OR OBSTRUCTIONS TO VISIBILITY.


SDZ001>005-009-010-012>017-190800-
NORTHWEST AND NORTH CENTRAL SOUTH DAKOTA

CITY           SKY/WX    TMP DP  RH WIND       PRES   REMARKS
BUFFALO          N/A     44  26  49 S3        29.81F
FAITH            N/A     43  29  57 S20       29.88F
MOBRIDGE       CLOUDY    47  36  65 SE13      29.91F
$$

SDZ012>016-024>037-041>051-057-063-072>074-190800-
SOUTHWEST AND SOUTH CENTRAL SOUTH DAKOTA

CITY           SKY/WX    TMP DP  RH WIND       PRES   REMARKS
RAPID CTY ARPT CLOUDY    51  30  44 S12       29.93F
PIERRE         CLOUDY    47  29  49 SE9       29.95F
CUSTER         CLOUDY    49  22  34 SW6       30.02F
ELLSWORTH AFB  CLOUDY    53  29  39 S15       29.91F
PHILIP         CLOUDY    50  35  56 S8        29.94F
PINE RIDGE     CLOUDY    56  33  42 S23G32    29.99F
SPEARFISH      FAIR      61  19  20 SW9       29.90S
WINNER         FAIR      57  34  41 S16       29.99F
$$

SDZ004>011-016>023-039-040-190800-
NORTHEAST SOUTH DAKOTA

CITY           SKY/WX    TMP DP  RH WIND       PRES   REMARKS
ABERDEEN       CLOUDY    35  29  78 S3        29.99F
WATERTOWN      CLOUDY    41  32  70 SE5       30.02R
BROOKINGS      CLOUDY    41  31  67 S3        30.04F
SISSETON         N/A     52  30  43 SW10      29.96F
$$

SDZ017-020-022-023-036>040-048>070-190800-
SOUTHEAST SOUTH DAKOTA

CITY           SKY/WX    TMP DP  RH WIND       PRES   REMARKS
SIOUX FALLS    CLOUDY    39  36  89 CALM      30.06S
HURON          CLOUDY    44  31  60 S9        30.00F
CHAMBERLAIN    CLOUDY    42  36  80 SE6       30.00F
MITCHELL       CLOUDY    39  35  86 S6        30.03F
YANKTON        CLOUDY    44  35  70 CALM      30.06S
$$

ABBREVIATIONS USED IN REMARKS
   TC - TEMPERATURE IN CELSIUS
  WCI - WIND CHILL INDEX
   HX - HEAT INDEX
  VSB - VISIBILITY





USA.gov is the U.S. government's official web portal to all federal, state and local government web resources and services.